DW8097 Weather Reports


time (UTC)temp
C
wind
direction
speed
KPH
gust
KPH
rain 1hr
cm
rain 24hr
cm
rain mn
cm
humidity
%
barometer
mb
20260831001525 26 229 6.4 27.4 0.00 0.00 0.00 65 1007.0
20260831000026 27 251 0.0 12.9 0.00 0.00 0.00 67 1007.0
20260830234535 27 192 1.6 11.3 0.00 0.00 0.00 67 1006.9
20260830233021 27 192 0.0 4.8 0.00 0.00 0.00 65 1007.0
20260830231521 28 186 3.2 16.1 0.00 0.00 0.00 61 1006.9
20260830230022 30 172 3.2 19.3 0.00 0.00 0.00 60 1006.4
20260830224517 29 252 1.6 12.9 0.00 0.00 0.00 62 1006.3
20260830223016 28 160 6.4 16.1 0.00 0.00 0.00 64 1006.2
20260830221514 30 179 0.0 20.9 0.00 0.00 0.00 60 1006.1
20260830220015 30 213 6.4 22.5 0.00 0.00 0.00 58 1006.1
20260830214512 32 168 3.2 22.5 0.00 0.00 0.00 57 1005.8
20260830213015 31 175 1.6 19.3 0.00 0.00 0.00 58 1006.0
20260830211509 31 155 8.0 17.7 0.00 0.00 0.00 59 1005.9
20260830211507 31 223 8.0 17.7 0.00 0.00 0.00 59 1005.9
20260830210003 31 202 1.6 22.5 0.00 0.00 0.00 58 1006.0
20260830204604 32 184 6.4 16.1 0.00 0.00 0.00 58 1006.3
20260830203056 31 186 0.0 22.5 0.00 0.00 0.00 60 1006.3
20260830201554 30 160 6.4 20.9 0.00 0.00 0.00 64 1006.7
20260830200050 30 202 8.0 24.1 0.00 0.00 0.00 62 1006.5
20260830194547 31 115 4.8 17.7 0.00 0.00 0.00 60 1006.5
20260830193043 30 153 4.8 20.9 0.00 0.00 0.00 61 1006.8
20260830191540 30 175 6.4 16.1 0.00 0.00 0.00 62 1006.6
20260830190044 29 134 4.8 16.1 0.00 0.00 0.00 65 1006.6
20260830184536 28 126 1.6 19.3 0.00 0.00 0.00 67 1006.6
20260830183029 28 113 9.7 20.9 0.00 0.00 0.00 67 1006.7
20260830181525 29 107 14.5 24.1 0.00 0.00 0.00 65 1007.1
20260830180016 27 105 8.0 16.1 0.00 0.00 0.00 72 1007.7
20260830174517 26 94 6.4 17.7 0.00 0.00 0.00 72 1007.8
20260830173038 26 116 6.4 12.9 0.00 0.00 0.00 74 1007.9
20260830171536 25 126 0.0 9.7 0.00 0.00 0.00 76 1008.1
20260830170031 25 160 3.2 9.7 0.00 0.00 0.00 76 1008.0
20260830164525 25 171 0.0 9.7 0.00 0.00 0.00 73 1007.7
20260830163024 25 148 0.0 6.4 0.00 0.00 0.00 73 1007.9
20260830161520 26 159 1.6 8.0 0.00 0.00 0.00 72 1007.6
20260830160018 26 190 3.2 14.5 0.00 0.00 0.00 73 1007.3
20260830154515 25 127 3.2 14.5 0.00 0.00 0.00 76 1007.0
20260830153013 26 113 6.4 19.3 0.00 0.00 0.00 72 1007.1
20260830151513 25 122 1.6 12.9 0.00 0.00 0.00 74 1007.1
20260830150042 23 179 0.0 11.3 0.00 0.00 0.00 81 1007.0
20260830144544 22 115 0.0 11.3 0.00 0.00 0.00 83 1007.0
20260830143040 22 116 0.0 12.9 0.00 0.00 0.00 83 1007.1
20260830141542 23 175 1.6 11.3 0.00 0.00 0.00 80 1007.3
20260830140038 23 173 0.0 11.3 0.00 0.03 0.00 82 1007.4
20260830134542 22 178 0.0 12.9 0.00 0.03 0.00 85 1007.3
20260830133037 22 118 1.6 11.3 0.00 0.03 0.00 86 1007.1
20260830131534 21 128 0.0 8.0 0.00 0.03 0.00 88 1007.3
20260830130040 21 178 1.6 9.7 0.00 0.20 0.00 90 1007.3
20260830124532 20 107 0.0 8.0 0.00 0.20 0.00 91 1007.3
20260830123030 20 181 0.0 3.2 0.00 0.20 0.00 92 1007.2
20260830121537 20 171 0.0 0.0 0.00 0.20 0.00 92 1007.1
20260830120030 19 161 0.0 0.0 0.00 0.48 0.00 92 1007.0
20260830114526 19 180 0.0 0.0 0.00 0.48 0.00 92 1006.7
20260830113023 18 221 0.0 0.0 0.00 0.48 0.00 92 1006.9
20260830111523 18 171 0.0 0.0 0.00 0.48 0.00 91 1006.6
20260830110020 18 197 0.0 0.0 0.00 0.71 0.00 91 1007.3
20260830104547 19 161 0.0 0.0 0.00 0.71 0.00 91 1007.1
20260830103016 19 198 0.0 0.0 0.00 0.71 0.00 91 1007.2
20260830101516 19 180 0.0 0.0 0.00 0.71 0.00 91 1006.9
20260830100016 19 200 0.0 0.0 0.00 0.89 0.00 90 1006.7
20260830094513 19 198 0.0 0.0 0.00 0.89 0.00 90 1006.9
20260830093114 19 176 0.0 0.0 0.00 0.89 0.00 90 1007.0
20260830091542 20 161 0.0 0.0 0.00 0.89 0.00 90 1006.9
20260830090040 20 148 0.0 3.2 0.00 0.89 0.00 89 1006.9
20260830084537 20 161 0.0 1.6 0.00 0.89 0.00 89 1007.0
20260830083052 20 134 0.0 1.6 0.00 0.89 0.00 90 1007.3
20260830081534 19 175 0.0 0.0 0.00 0.89 0.00 90 1007.2
20260830080033 18 210 0.0 0.0 0.00 0.89 0.00 90 1007.3
20260830074530 19 210 0.0 0.0 0.00 0.89 0.00 89 1007.3
20260830073030 19 192 0.0 0.0 0.00 0.89 0.00 89 1007.4
20260830071529 19 192 0.0 0.0 0.00 0.89 0.00 90 1007.5
20260830070027 19 192 0.0 0.0 0.00 0.89 0.00 88 1007.6
20260830064523 19 192 0.0 0.0 0.00 0.89 0.00 87 1007.6
20260830063018 20 192 0.0 0.0 0.00 0.89 0.00 87 1008.0
20260830061521 20 197 0.0 0.0 0.00 0.89 0.00 87 1008.0
20260830060023 20 197 0.0 0.0 0.00 0.89 0.00 86 1008.0
20260830054515 20 200 0.0 0.0 0.00 0.89 0.00 84 1008.2
20260830053024 21 134 0.0 3.2 0.00 0.89 0.00 84 1008.2
20260830051520 21 169 0.0 0.0 0.00 0.89 0.00 83 1008.4
20260830050012 21 150 0.0 3.2 0.00 0.89 0.00 82 1008.5
20260830044514 21 177 0.0 11.3 0.00 0.89 0.00 81 1008.5
20260830043015 22 158 1.6 8.0 0.00 0.89 0.00 81 1008.7
20260830041518 22 117 1.6 8.0 0.00 0.89 0.00 81 1009.0
20260830040008 22 140 0.0 4.8 0.00 0.89 0.00 80 1008.8
20260830034506 22 172 0.0 3.2 0.00 0.89 0.00 79 1008.7
20260830033008 22 163 0.0 8.0 0.00 0.89 0.00 78 1008.9
20260830031504 22 114 0.0 1.6 0.00 0.89 0.00 78 1008.8
20260830030004 22 144 0.0 0.0 0.00 0.89 0.00 77 1008.8
20260830024501 22 241 0.0 0.0 0.00 0.89 0.00 77 1008.8
20260830023001 22 227 0.0 14.5 0.00 0.89 0.00 76 1008.8
20260830021607 22 223 4.8 14.5 0.00 0.89 0.00 78 1008.6
20260830020114 22 244 0.0 11.3 0.00 0.89 0.00 77 1008.4
20260830014558 22 234 3.2 12.9 0.00 0.89 0.00 77 1008.2
20260830013109 22 265 3.2 11.3 0.00 0.89 0.00 76 1008.0
20260830011606 22 223 1.6 16.1 0.00 0.89 0.00 75 1008.0
20260830010054 23 238 8.0 17.7 0.00 0.89 0.00 73 1007.8
20260830004550 23 205 0.0 9.7 0.00 0.89 0.00 71 1007.9
20260830003052 23 231 1.6 11.3 0.00 0.89 0.00 69 1007.7